Regional Weather Roundup
Issued by NWS Columbia, SC

Home | Current Version | Previous Version | Text Only | Print | Product List | Glossary On
Versions: 1 2 3 4 5 6 7 8 9 10 11 12 13 14 15 16 17 18 19 20 21 22 23 24 25 26 27 28 29 30 31 32 33 34 35 36 37 38 39 40 41 42 43 44 45 46 47 48 49 50
000
ASUS42 KCAE 251010
RWRCAE
REGIONAL WEATHER ROUNDUP
NATIONAL WEATHER SERVICE COLUMBIA SC
500 AM EST SAT FEB 25 2017

NOTE: "FAIR" INDICATES FEW OR NO CLOUDS BELOW 12,000 FEET WITH NO
SIGNIFICANT WEATHER AND/OR OBSTRUCTIONS TO VISIBILITY.

NOT ALL STATIONS ARE QUALITY CONTROLLED BY THE NATIONAL
WEATHER SERVICE. USE DATA WITH CAUTION...ESPECIALLY
DEWPOINT OBSERVATIONS.

SCZ001>056-GAZ040-063>065-077-251100-
...UPSTATE SOUTH CAROLINA...

CITY           SKY/WX    TMP DP  RH WIND       PRES   REMARKS
ANDERSON       PTCLDY    61  57  87 S9        29.74F
LIBERTY        SUNNY     59  55  85 S5        29.72F
SPARTANBURG    CLOUDY    61  54  77 SW7       29.75S
CLEMSON        MOCLDY    63  54  72 VRB5      29.74F
GREENVILLE     MOCLDY    62  57  83 S9        29.74F
GREENWOOD      PTCLDY    60  56  86 S9        29.77F
GREER          CLOUDY    61  56  83 S10       29.72F
ROCK HILL      PTCLDY    57  55  93 SW7       29.77R
CHESTER        PTSUNNY   59  57  94 S6        29.77S
LAURENS        CLOUDY    61  55  82 SW8       29.76S


...CENTRAL SOUTH CAROLINA...

CITY           SKY/WX    TMP DP  RH WIND       PRES   REMARKS
COLUMBIA APT   PTCLDY    61  58  90 SW7       29.78R
COLUMBIA OWENS MOCLDY    61  58  90 S3        29.79R
MCENTIRE ANGB  PTCLDY    53  53 100 CALM      29.79R FOG
ORANGEBURG     PTCLDY    56  56 100 SW6       29.79R FOG
SUMTER SHAW    PTCLDY    58  56  95 SW5       29.76R
AIKEN          CLOUDY    61  59  94 S6        29.82R
BARNWELL       CLOUDY    61  61 100 CALM      29.79S
MANNING        FAIR      54  52  94 MISG      29.78S
CAMDEN         FAIR      59  57  94 CALM      29.79R
LANCASTER      MOSUNNY   59  59 100 SW9       29.77S
WINNSBORO      MOSUNNY   59  57  94 S7        29.77S


...EASTERN AND COASTAL SOUTH CAROLINA...

CITY           SKY/WX    TMP DP  RH WIND       PRES   REMARKS
MYRTLE BEACH   CLEAR     54  52  94 W3        29.79S FOG
N MYRTLE BCH   CLEAR     53  53 100 CALM      29.77F FOG
CONWAY         FOG       50  50 100 CALM      29.78S VSB 1/4
MARION         FOG       52  52 100 CALM      29.78S VSB 1/4
HARTSVILLE     FAIR      55  55 100 SW3       29.77S
FLORENCE       CLEAR     58  58 100 S6        29.77F
DARLINGTON     CLEAR     56  56 100 SW3       29.78R
CHARLESTON APT CLEAR     56  55  97 SW5       29.79S
MOUNT PLEASANT FAIR      54  52  94 CALM      29.79S FOG
WALTERBORO     FOG       55  55 100 CALM      29.80S VSB 1
BEAUFORT       MOCLDY    59  59 100 CALM      29.80S FOG


...EASTERN GEORGIA...

CITY           SKY/WX    TMP DP  RH WIND       PRES   REMARKS
AUGUSTA BUSH F PTCLDY    62  59  90 S3        29.78S
AUGUSTA DANIEL MOCLDY    63  58  83 S8        29.79S
THOMSON        CLEAR     63  62  96 CALM      29.82S
WASHINGTON     FAIR      63  63 100 S3        29.77F
CLAXTON        PTSUNNY  N/A N/A N/A CALM      29.82R
SYLVANIA       PTSUNNY  N/A N/A N/A CALM      29.81R FOG
STATESBORO     MOCLDY    62  32  32 CALM      29.81R
SAVANNAH       CLOUDY    62  60  93 SW3       29.81R FOG


...SOUTHERN NORTH CAROLINA...

CITY           SKY/WX    TMP DP  RH WIND       PRES   REMARKS
CHARLOTTE      PTCLDY    59  54  83 S9        29.76R
MONROE         PTCLDY    61  55  81 S7        29.75S
WADESBORO      CLOUDY    60  56  88 S3        29.77R
ROCKINGHAM     CLOUDY    58  58 100 S3        29.77S
RUTHERFORDTON  MOCLDY    59  55  88 S13G21    29.73F
ASHEVILLE      PTCLDY    60  50  69 S12       29.73S

$$



USA.gov is the U.S. government's official web portal to all federal, state and local government web resources and services.